Simultaneous Nadir Overpasses (SNOs) Predictions

Prediction of SNOs between LANDSAT-8 and METOP-B Satellite Orbit:

Table of predicted SNOs for the next 14.0 days since TLE Epoch: 8/13/2022
Index Date (LANDSAT-8) Time (LANDSAT-8) Lat,Lon (LANDSAT-8) SZA (LANDSAT-8 ) Date (METOP-B) Time (METOP-B) Lat,Lon (METOP-B) SZA (METOP-B ) Distance(km) Time Diff (sec)
1 08/13/2022 12:10:00 81.17, 38.34 68.67 08/13/2022 12:08:56 81.17, 38.41 68.65 1.19 64
2 08/13/2022 12:59:26 -81.19,-153.74 111.28 08/13/2022 12:59:35 -81.19,-153.59 111.26 2.55 9
3 08/16/2022 07:44:16 81.17, 104.74 69.55 08/16/2022 07:43:17 81.17, 104.78 69.53 0.60 59
4 08/16/2022 08:33:42 -81.19, -87.31 110.40 08/16/2022 08:33:56 -81.19, -87.21 110.38 1.67 14
5 08/19/2022 03:18:31 81.16, 171.07 70.45 08/19/2022 03:17:37 81.16, 171.11 70.43 0.72 54
6 08/19/2022 04:07:57 -81.18, -20.95 109.50 08/19/2022 04:08:16 -81.19, -20.87 109.48 1.55 19
7 08/21/2022 22:52:46 81.17,-122.31 71.42 08/21/2022 22:51:57 81.17,-122.21 71.41 1.62 49
8 08/21/2022 23:42:12 -81.19, 45.69 108.52 08/21/2022 23:42:36 -81.19, 45.82 108.50 2.24 24
9 08/24/2022 18:27:01 81.18, -55.77 72.40 08/24/2022 18:26:17 81.18, -55.58 72.40 3.26 44



Historial Predications of SNOs between LANDSAT-8 and METOP-B
